Location: Courçay
(47.2523°N, 0.8761°E)
Time: 20:25:48
(UTC+00:00)

ATLAS CENTAUR R/B - Pass Details

Date: 18 November 2025
Orbit: 343 x 422 km, 64.6° (Epoch: 10 December)

Event Time Altitude Azimuth Distance (km) Brightness Sun altitude
Rises 17:21:25 0° 279° (W) 2,436 5.9 -10.8°
Reaches altitude 10° 17:25:30 10° 326° (NW) 1,570 3.9 -11.5°
Maximum altitude 17:25:54 10° 332° (NNW) 1,561 3.8 -11.5°
Drops below altitude 10° 17:26:19 10° 339° (NNW) 1,570 3.7 -11.6°
Enters shadow 17:29:05 - 16° (NNE) 2,049 3.9 -12.0°
